Weather Roundup
Issued by NWS Chicago, IL

Home | Current Version | Previous Version | Text Only | Print | Product List | Glossary On
Versions: 1 2 3 4 5 6 7 8 9 10 11 12 13 14 15 16 17 18 19 20 21 22 23 24 25 26 27 28 29 30 31 32 33 34 35 36 37 38 39 40 41 42 43 44 45 46 47 48 49 50
000
NZUS59 KLOT 281906
HRRLOT

CHICAGO AREA WEATHER ROUNDUP
NATIONAL WEATHER SERVICE CHICAGO/ROMEOVILLE IL
100 PM CST WED JAN 28 2015

NOTE: "FAIR" INDICATES FEW OR NO CLOUDS BELOW 12,000 FEET WITH NO
SIGNIFICANT WEATHER AND/OR OBSTRUCTIONS TO VISIBILITY.

* THESE STATIONS ARE NOT UNDER NWS QUALITY CONTROL. THEY ALSO MAY NOT
  REPORT WEATHER SUCH AS PRECIPITATION OR FOG.

ILZ005-006-012>014-019>023-282000-
NORTHEAST ILLINOIS

CITY           SKY/WX    TMP DP  RH WIND       PRES   REMARKS
OHARE          CLOUDY    32  18  56 S15       30.15F WCI  22
MIDWAY         PTSUNNY   35  19  52 S14       30.16F WCI  26
AURORA         MOSUNNY   33  21  61 S14       30.14F WCI  23
LANSING*       MOSUNNY   33  21  61 S15       30.19F WCI  22
JOLIET*        MOSUNNY   32  21  63 SE12G18   30.16F WCI  23
WAUKEGAN       MOSUNNY   33  19  56 SE9       30.14F WCI  25
DUPAGE AIRPORT MOSUNNY   32  20  61 S12       30.13F WCI  23
WHEELING       MOSUNNY   33  17  51 S13       30.17F WCI  24
KANKAKEE*      SUNNY     34  25  69 SE13      30.18F WCI  25
MORRIS*        MOSUNNY   32  25  74 S17       30.14F WCI  21
LEWIS AIRPORT* MOSUNNY   32  21  63 S15       30.15F WCI  22
NORTHERLY IS     N/A     33  18  54 S13         N/A  WCI  24
$$

WIZ051-052-058>065-066-070>072-282000-
SOUTHEAST WISCONSIN

CITY           SKY/WX    TMP DP  RH WIND       PRES   REMARKS
MILWAUKEE      PTSUNNY   34  17  50 S9        30.14F WCI  27
KENOSHA*       PTSUNNY   34  18  52 S12       30.14F WCI  25
RACINE*        MOSUNNY   31  19  61 S16       30.16F WCI  20
BURLINGTON     PTSUNNY   32  17  54 S8G18     30.12F WCI  25
WAUKESHA       SUNNY     30  19  64 SE14      30.13F WCI  20
WEST BEND      PTSUNNY   32  21  64 S8        30.11F WCI  25
$$

INZ001>003-010>013-019-020-282000-
NORTHWEST INDIANA

CITY           SKY/WX    TMP DP  RH WIND       PRES   REMARKS
GARY*          PTSUNNY   34  14  44 S9        30.19F WCI  26
MICHIGAN CITY* NOT AVBL
RENSSELAER*    NOT AVBL
VALPARAISO     MOSUNNY  N/A N/A N/A S12       30.20F
$$

LMZ740>746-282000-
SOUTHERN LAKE MICHIGAN

STATION/POSITION TIME  SKY/WX   TEMP WIND        PRES    VSBY
                                AIR  DIR/SP/G
                 (UTC)          (F)  (DEG/KT/KT) (MB)    (MI)
HARRISON CRIB    1900            31  160/ 17/ 21   N/A
BURNHAM HARBOR   1900            33  190/ 12/ 17   N/A
CALUMET HARBOR   1900            32  160/ 14/ 19   N/A
BURNS HARBOR     NOT AVBL
MICHIGAN CITY    1900            31  150/ 12/ 16   N/A
$$

ABBREVIATIONS USED IN REMARKS
   TC - TEMPERATURE IN CELSIUS
  WCI - WIND CHILL INDEX
   HX - HEAT INDEX
  VSB - VISIBILITY
$$


USA.gov is the U.S. government's official web portal to all federal, state and local government web resources and services.